sat.trackr.live / text

‹ back to catalog

STARLINK-30089

NORAD 56296 · 2023-056L

PAYLOAD ACTIVE UNKNOWN

§ Identity

Operator
Country
US
Launch date
2023-04-19
Launch site
AFETR
Launch vehicle
Mass (kg)
RCS (m²)

Purposes: comms

External: N2YO · Heavens-Above · Gunter

§ Orbital elements

Epoch: 2026-09-20T23:29:15.792000Z

Period
94.27 min
Inclination
43.0024°
Eccentricity
0.0001377
Mean motion
15.27575030 rev/d
Perigee alt
482.1 km
Apogee alt
484.0 km
Semi-major
6,861.2 km
B*
2.7499e-5
RAAN
146.2498°
Arg perigee
261.2965°
Mean anomaly
98.7731°
Rev number
19,036

§ Raw data

STARLINK-300891 56296U 23056L   26263.97865500  .00000495  00000+0  27499-4 0  99952 56296  43.0024 146.2498 0001377 261.2965  98.7731 15.27575030190365

JSON: /api/v1/satellites/56296 · /tle

For live sub-satellite position, see the globe view (requires WebGL).

§ Visibility from observer

Set your observer location to see the next 7 days of passes ≥ 10°. The values pass through the URL so the page stays shareable.

No JS? Fill the form by hand. The geolocation button needs JavaScript.